Flag for Finland Weather past 2 weeks in Helsinki, Finland

Now
37 °F

Passing clouds.


Feels Like: 29 °F
Forecast: 42 / 49 °F
Wind: 14 mph from South

Location: Helsinki Malmi Airport

Current Time: Oct 25, 2014 at 8:58:54 AM

Latest Report: Oct 25, 2014 at 8:20 AM


Visibility: N/A

Pressure: 30.24 "Hg

Humidity: 70%

Dew point: 28 °F

Location of HelsinkiLocation

Historic Weather in Helsinki — Graph

°F

Helsinki temperature yesterday

Maximum temperature yesterday: 37 °F (at 4:20 PM)
Minimum temperature yesterday: 28 °F (at 1:50 AM)
Average temperature yesterday: 33 °F

Past Weeks' High & Low Weather Summary

 TemperatureHumidityPressure
High55 °F (Oct 10, 12:20 PM)100% (Oct 10, 7:20 AM)30.57 "Hg (Oct 10, 7:20 AM)
Low19 °F (Oct 18, 7:50 AM)38% (Oct 24, 4:20 PM)29.30 "Hg (Oct 20, 7:50 AM)
Average39 °F82%30.00 "Hg
* Reported Oct 10 7:20 AM — Oct 25 7:50 AM, Helsinki, Weather by CustomWeather, © 2014

Note: Actual official high and low records may vary slightly from our data, if they occured in-between our weather recording intervals... More about our weather records

Advertising

Helsinki weather history for previous 24 hours

 ConditionsComfort  
Time TempWeatherWind HumidityBarometerVisibility
7:50 AM
Oct 25
37 °FOvercast.13 mph70%30.24 "HgN/A
7:20 AM37 °FOvercast.14 mph70%30.27 "HgN/A
6:50 AM37 °FOvercast.13 mph70%30.27 "HgN/A
6:20 AM37 °FOvercast.14 mph70%30.27 "HgN/A
5:50 AM37 °FOvercast.13 mph70%30.27 "HgN/A
5:20 AM37 °FOvercast.14 mph70%30.30 "HgN/A
4:50 AM37 °FOvercast.15 mph70%30.30 "HgN/A
4:20 AM36 °FOvercast.15 mph75%30.30 "HgN/A
3:50 AM36 °FMostly cloudy.13 mph75%30.33 "HgN/A
3:20 AM36 °FPassing clouds.12 mph70%30.33 "HgN/A
2:50 AM36 °FPassing clouds.12 mph70%30.33 "HgN/A
2:20 AM36 °FOvercast.14 mph65%30.33 "HgN/A
1:50 AM36 °FPassing clouds.14 mph65%30.33 "HgN/A
1:20 AM34 °FPassing clouds.14 mph70%30.33 "HgN/A
12:50 AM34 °FPassing clouds.12 mph65%30.36 "HgN/A
12:20 AM34 °FPassing clouds.13 mph65%30.36 "HgN/A
11:50 PM
Oct 24
34 °FPassing clouds.14 mph65%30.36 "HgN/A
11:20 PM36 °FPassing clouds.16 mph56%30.36 "HgN/A
10:50 PM36 °FPassing clouds.16 mph56%30.39 "HgN/A
10:20 PM36 °FPassing clouds.16 mph56%30.39 "HgN/A
9:50 PM36 °FPassing clouds.16 mph52%30.39 "HgN/A
9:20 PM36 °FPassing clouds.17 mph52%30.39 "HgN/A
8:50 PM36 °FPassing clouds.16 mph52%30.39 "HgN/A
8:20 PM36 °FPassing clouds.13 mph52%30.39 "HgN/A
7:50 PM36 °FPassing clouds.15 mph48%30.39 "HgN/A
7:20 PM36 °FPassing clouds.14 mph48%30.42 "HgN/A
6:50 PM37 °FPassing clouds.13 mph41%30.42 "HgN/A
6:20 PM37 °FPassing clouds.14 mph38%30.42 "HgN/A
5:50 PM37 °FPassing clouds.12 mph41%30.42 "HgN/A
5:20 PM37 °FPassing clouds.12 mph38%30.45 "HgN/A
4:50 PM37 °FPassing clouds.13 mph38%30.45 "HgN/A
4:20 PM37 °FPassing clouds.12 mph38%30.45 "HgN/A
3:50 PM36 °FPassing clouds.13 mph41%30.48 "HgN/A
3:20 PM36 °FPassing clouds.14 mph41%30.48 "HgN/A
2:50 PM36 °FPassing clouds.10 mph44%30.48 "HgN/A
2:20 PM36 °FPassing clouds.14 mph44%30.51 "HgN/A
1:50 PM34 °FPassing clouds.12 mph48%30.51 "HgN/A
1:20 PM34 °FPassing clouds.10 mph51%30.51 "HgN/A
12:50 PM32 °FPassing clouds.13 mph55%30.51 "HgN/A
12:20 PM32 °FPassing clouds.12 mph60%30.54 "HgN/A
11:50 AM32 °FPassing clouds.13 mph64%30.54 "HgN/A
11:20 AM30 °FPassing clouds.12 mph64%30.54 "HgN/A
10:50 AM30 °FPassing clouds.10 mph69%30.54 "HgN/A
10:20 AM30 °FPartly sunny.9 mph69%30.54 "HgN/A
9:50 AM30 °FPartly sunny.10 mph69%30.54 "HgN/A
9:20 AM30 °FPassing clouds.8 mph75%30.54 "HgN/A
8:50 AM30 °FPassing clouds.8 mph75%30.54 "HgN/A
8:20 AM30 °FPassing clouds.9 mph75%30.54 "HgN/A
Weather by CustomWeather, © 2014

See weather overviewHow to use our weather pages